TimeEDT,TemperatureF,Dew PointF,Humidity,Sea Level PressureIn,VisibilityMPH,Wind Direction,Wind SpeedMPH,Gust SpeedMPH,PrecipitationIn,Events,Conditions,WindDirDegrees,DateUTC
12:05 AM,66.7,66.0,98,30.04,10.0,Calm,Calm,-,N/A,,Scattered Clouds,0,2013-07-26 04:05:00
12:30 AM,68.2,64.8,89,30.04,10.0,Calm,Calm,-,N/A,,Mostly Cloudy,0,2013-07-26 04:30:00
12:50 AM,68.0,64.2,88,30.04,10.0,Calm,Calm,-,N/A,,Scattered Clouds,0,2013-07-26 04:50:00
1:10 AM,67.3,64.0,89,30.04,10.0,Calm,Calm,-,N/A,,Clear,0,2013-07-26 05:10:00
1:30 AM,66.6,64.6,93,30.04,10.0,Calm,Calm,-,N/A,,Scattered Clouds,0,2013-07-26 05:30:00
1:50 AM,67.3,64.6,91,30.05,10.0,Calm,Calm,-,N/A,,Overcast,0,2013-07-26 05:50:00
2:10 AM,68.2,64.4,88,30.04,10.0,Calm,Calm,-,N/A,,Overcast,0,2013-07-26 06:10:00
2:30 AM,68.4,64.4,87,30.04,10.0,Calm,Calm,-,N/A,,Overcast,0,2013-07-26 06:30:00
2:50 AM,68.2,65.3,90,30.04,10.0,Calm,Calm,-,N/A,,Overcast,0,2013-07-26 06:50:00
3:10 AM,67.3,64.4,90,30.03,10.0,Calm,Calm,-,N/A,,Scattered Clouds,0,2013-07-26 07:10:00
3:30 AM,67.5,64.4,90,30.03,10.0,Calm,Calm,-,N/A,,Scattered Clouds,0,2013-07-26 07:30:00
3:50 AM,66.9,64.4,92,30.03,10.0,Calm,Calm,-,N/A,,Clear,0,2013-07-26 07:50:00
4:10 AM,66.2,64.4,94,30.04,10.0,Calm,Calm,-,N/A,,Clear,0,2013-07-26 08:10:00
4:30 AM,64.9,63.9,96,30.04,10.0,Calm,Calm,-,N/A,,Clear,0,2013-07-26 08:30:00
4:50 AM,65.3,64.0,96,30.04,10.0,Calm,Calm,-,N/A,,Clear,0,2013-07-26 08:50:00
5:10 AM,64.6,63.9,98,30.04,10.0,Calm,Calm,-,N/A,,Clear,0,2013-07-26 09:10:00
5:30 AM,64.4,64.0,99,30.05,10.0,Calm,Calm,-,N/A,,Clear,0,2013-07-26 09:30:00
5:50 AM,63.7,63.7,100,30.06,10.0,Calm,Calm,-,N/A,,Clear,0,2013-07-26 09:50:00
6:10 AM,63.5,63.5,100,30.06,10.0,Calm,Calm,-,N/A,,Scattered Clouds,0,2013-07-26 10:10:00
6:30 AM,63.5,63.5,100,30.06,10.0,Calm,Calm,-,N/A,,Clear,0,2013-07-26 10:30:00
6:50 AM,63.9,63.9,100,30.06,7.0,Calm,Calm,-,N/A,,Clear,0,2013-07-26 10:50:00
7:10 AM,64.8,64.8,100,30.07,7.0,Calm,Calm,-,N/A,,Clear,0,2013-07-26 11:10:00
7:30 AM,66.9,64.4,92,30.07,10.0,Calm,Calm,-,N/A,,Clear,0,2013-07-26 11:30:00
7:50 AM,68.9,63.9,84,30.07,10.0,Calm,Calm,-,N/A,,Clear,0,2013-07-26 11:50:00
8:10 AM,70.7,64.6,81,30.08,10.0,Calm,Calm,-,N/A,,Clear,0,2013-07-26 12:10:00
8:30 AM,72.0,63.7,75,30.09,10.0,Calm,Calm,-,N/A,,Clear,0,2013-07-26 12:30:00
8:50 AM,72.9,64.0,74,30.09,10.0,North,3.5,-,N/A,,Clear,350,2013-07-26 12:50:00
9:10 AM,73.6,63.3,70,30.10,10.0,Calm,Calm,-,N/A,,Clear,0,2013-07-26 13:10:00
9:30 AM,74.5,63.7,69,30.09,10.0,NNE,4.6,-,N/A,,Clear,20,2013-07-26 13:30:00
9:50 AM,75.9,64.2,67,30.09,10.0,Calm,Calm,-,N/A,,Clear,0,2013-07-26 13:50:00
10:10 AM,76.1,63.7,65,30.09,10.0,Calm,Calm,-,N/A,,Clear,0,2013-07-26 14:10:00
10:30 AM,76.5,63.9,65,30.09,10.0,Calm,Calm,-,N/A,,Scattered Clouds,0,2013-07-26 14:30:00
10:50 AM,76.5,63.7,64,30.09,10.0,West,3.5,-,N/A,,Scattered Clouds,280,2013-07-26 14:50:00
11:10 AM,77.4,62.6,60,30.09,10.0,Calm,Calm,-,N/A,,Scattered Clouds,0,2013-07-26 15:10:00
11:30 AM,77.0,62.2,60,30.08,10.0,NNW,4.6,-,N/A,,Scattered Clouds,340,2013-07-26 15:30:00
11:50 AM,79.7,63.1,57,30.07,10.0,NE,3.5,-,N/A,,Clear,40,2013-07-26 15:50:00
12:10 PM,80.1,61.3,53,30.07,10.0,Calm,Calm,-,N/A,,Scattered Clouds,0,2013-07-26 16:10:00
12:35 PM,79.2,61.3,54,30.07,10.0,Calm,Calm,-,N/A,,Scattered Clouds,0,2013-07-26 16:35:00
12:55 PM,80.2,61.0,52,30.07,10.0,WNW,4.6,-,N/A,,Scattered Clouds,290,2013-07-26 16:55:00
1:15 PM,82.4,61.0,48,30.06,10.0,WSW,3.5,-,N/A,,Clear,250,2013-07-26 17:15:00
1:35 PM,82.8,61.2,48,30.06,10.0,Calm,Calm,-,N/A,,Mostly Cloudy,0,2013-07-26 17:35:00
1:55 PM,82.6,61.0,48,30.06,10.0,WSW,5.8,-,N/A,,Scattered Clouds,250,2013-07-26 17:55:00
2:15 PM,81.3,61.3,51,30.06,10.0,NNW,5.8,-,N/A,,Mostly Cloudy,340,2013-07-26 18:15:00
2:35 PM,82.9,62.1,49,30.05,10.0,WNW,4.6,-,N/A,,Mostly Cloudy,300,2013-07-26 18:35:00
2:55 PM,83.8,60.6,45,30.04,10.0,NNW,4.6,-,N/A,,Scattered Clouds,330,2013-07-26 18:55:00
3:15 PM,84.2,59.2,43,30.04,10.0,SSE,4.6,-,N/A,,Mostly Cloudy,160,2013-07-26 19:15:00
3:35 PM,83.5,57.7,41,30.04,10.0,Calm,Calm,-,N/A,,Scattered Clouds,0,2013-07-26 19:35:00
3:55 PM,83.8,57.7,41,30.04,10.0,North,4.6,-,N/A,,Scattered Clouds,350,2013-07-26 19:55:00
4:15 PM,84.7,58.8,41,30.04,10.0,WSW,6.9,-,N/A,,Scattered Clouds,240,2013-07-26 20:15:00
4:35 PM,84.9,59.4,42,30.03,10.0,NW,5.8,-,N/A,,Clear,310,2013-07-26 20:35:00
4:55 PM,84.6,58.6,41,30.03,10.0,WSW,6.9,-,N/A,,Clear,250,2013-07-26 20:55:00
5:15 PM,84.4,59.0,42,30.03,10.0,Calm,Calm,-,N/A,,Clear,0,2013-07-26 21:15:00
5:35 PM,84.6,58.3,41,30.03,10.0,WSW,3.5,-,N/A,,Scattered Clouds,250,2013-07-26 21:35:00
5:55 PM,84.6,59.4,42,30.02,10.0,West,3.5,-,N/A,,Scattered Clouds,270,2013-07-26 21:55:00
6:15 PM,84.6,58.3,41,30.02,10.0,SSW,4.6,-,N/A,,Clear,210,2013-07-26 22:15:00
6:35 PM,84.6,59.2,42,30.02,10.0,SW,4.6,-,N/A,,Mostly Cloudy,230,2013-07-26 22:35:00
6:55 PM,84.2,59.2,43,30.02,10.0,SSE,4.6,-,N/A,,Mostly Cloudy,160,2013-07-26 22:55:00
7:15 PM,84.2,59.5,43,30.02,10.0,SSW,4.6,-,N/A,,Overcast,210,2013-07-26 23:15:00
7:35 PM,83.3,59.4,44,30.03,10.0,SW,4.6,-,N/A,,Scattered Clouds,220,2013-07-26 23:35:00
7:55 PM,82.4,59.2,45,30.03,10.0,South,4.6,-,N/A,,Scattered Clouds,170,2013-07-26 23:55:00
8:15 PM,81.9,59.4,46,30.03,10.0,Calm,Calm,-,N/A,,Mostly Cloudy,0,2013-07-27 00:15:00
8:35 PM,80.8,59.7,49,30.04,10.0,Calm,Calm,-,N/A,,Scattered Clouds,0,2013-07-27 00:35:00
8:55 PM,80.4,60.4,50,30.04,10.0,Calm,Calm,-,N/A,,Scattered Clouds,0,2013-07-27 00:55:00
9:15 PM,76.3,62.1,61,30.04,10.0,Calm,Calm,-,N/A,,Scattered Clouds,0,2013-07-27 01:15:00
9:35 PM,75.0,62.8,66,30.04,10.0,Calm,Calm,-,N/A,,Clear,0,2013-07-27 01:35:00
9:55 PM,72.9,64.6,75,30.05,10.0,Calm,Calm,-,N/A,,Clear,0,2013-07-27 01:55:00
10:15 PM,71.6,64.9,79,30.05,10.0,Calm,Calm,-,N/A,,Clear,0,2013-07-27 02:15:00
10:35 PM,70.9,64.8,81,30.05,10.0,Calm,Calm,-,N/A,,Clear,0,2013-07-27 02:35:00
10:55 PM,70.7,64.9,82,30.06,10.0,Calm,Calm,-,N/A,,Clear,0,2013-07-27 02:55:00
11:15 PM,69.8,65.1,85,30.06,10.0,Calm,Calm,-,N/A,,Clear,0,2013-07-27 03:15:00
11:35 PM,69.3,65.1,87,30.06,10.0,Calm,Calm,-,N/A,,Clear,0,2013-07-27 03:35:00
11:55 PM,69.1,64.9,87,30.07,10.0,Calm,Calm,-,N/A,,Clear,0,2013-07-27 03:55:00